Location: Poughquag
(41.6090°N, 73.6820°W)
Time: 11:42:22
(UTC-04:00)

Tiros 1 despin weight - Pass Details

Date: 04 June 2020
Orbit: 593 x 642 km, 48.2° (Epoch: 07 July)

Event Time Altitude Azimuth Distance (km) Brightness Sun altitude
Rises 10:27:24 0° 254° (WSW) 2,929 ? 54.1°
Reaches altitude 10° 10:29:46 10° 258° (WSW) 2,017 ? 54.5°
Maximum altitude 10:34:22 59° 338° (NNW) 727 ? 55.3°
Drops below altitude 10° 10:38:55 10° 59° (ENE) 1,995 ? 56.1°
Sets 10:41:15 0° 63° (ENE) 2,894 ? 56.5°
